When you browse on this site, cookies collect data to enhance your experience and personalize the content and advertising you see.
Visit our Privacy Policy to learn more. By continuing to use the site, you agree to this use of cookies and data.
  • In Hungary
  • List of Countries
  • For 7 days
  • Water Temperature
  • Satellite Maps
  • Weather Map
  • News
  • Weather Widgets
  • user-avatar
    Login

    Hourly Weather Kuruknur

    Today, 19 November, Monday

    Time Temperature Precipitation Wind Pressure Humidity
    00:00 -1°C° 0 mm 2 mps 757 mmHg 97%
    01:00 -1°C° 0.1 mm 2 mps 757 mmHg 97%
    02:00 -1°C° 0.1 mm 2 mps 757 mmHg 97%
    03:00 -1°C° 0 mm 2 mps 757 mmHg 97%
    04:00 -1°C° 0.2 mm 2 mps 758 mmHg 97%
    05:00 -1°C° 0.2 mm 2 mps 758 mmHg 97%
    06:00 -1°C° 0.2 mm 2 mps 758 mmHg 97%
    07:00 -1°C° 0.2 mm 2 mps 758 mmHg 96%
    08:00 +1°C° 0.2 mm 2 mps 758 mmHg 96%
    09:00 +1°C° 0 mm 2 mps 758 mmHg 95%
    10:00 0°C° 0.1 mm 3 mps 759 mmHg 93%
    11:00 0°C° 0.1 mm 3 mps 759 mmHg 92%
    12:00 0°C° 0.1 mm 3 mps 759 mmHg 91%
    13:00 0°C° 0.1 mm 3 mps 760 mmHg 91%
    14:00 0°C° 0.1 mm 3 mps 760 mmHg 91%
    15:00 0°C° 0.1 mm 3 mps 760 mmHg 91%
    16:00 -1°C° 0.1 mm 3 mps 760 mmHg 91%
    17:00 -1°C° 0.1 mm 3 mps 760 mmHg 92%
    18:00 -1°C° 0.1 mm 3 mps 760 mmHg 93%
    19:00 -1°C° 0.1 mm 3 mps 760 mmHg 92%
    20:00 -1°C° 0.1 mm 3 mps 761 mmHg 91%
    21:00 -2°C° 0.1 mm 3 mps 761 mmHg 91%
    22:00 -2°C° 0 mm 3 mps 761 mmHg 90%
    23:00 -2°C° 0 mm 3 mps 761 mmHg 89%

    Tomorrow, 20 November, Tuesday

    Time Temperature Precipitation Wind Pressure Humidity
    00:00 -4°C° 0 mm 3 mps 761 mmHg 89%
    01:00 -4°C° 0 mm 3 mps 761 mmHg 89%
    02:00 -4°C° 0 mm 3 mps 761 mmHg 89%
    03:00 -4°C° 0 mm 2 mps 761 mmHg 90%
    04:00 -4°C° 0 mm 2 mps 761 mmHg 90%
    05:00 -4°C° 0 mm 2 mps 760 mmHg 90%
    06:00 -4°C° 0 mm 2 mps 760 mmHg 90%
    07:00 -4°C° 0 mm 2 mps 760 mmHg 89%
    08:00 -4°C° 0 mm 2 mps 760 mmHg 88%
    09:00 -4°C° 0 mm 2 mps 760 mmHg 87%
    10:00 -4°C° 0 mm 2 mps 760 mmHg 85%
    11:00 -3°C° 0 mm 2 mps 759 mmHg 83%
    12:00 -3°C° 0 mm 2 mps 759 mmHg 80%
    13:00 -3°C° 0 mm 2 mps 758 mmHg 81%
    14:00 -3°C° 0 mm 2 mps 758 mmHg 82%
    15:00 -3°C° 0 mm 2 mps 757 mmHg 82%
    16:00 -5°C° 0.1 mm 3 mps 757 mmHg 84%
    17:00 -5°C° 0.1 mm 3 mps 756 mmHg 85%
    18:00 -5°C° 0.1 mm 3 mps 756 mmHg 86%
    19:00 -5°C° 0.1 mm 3 mps 755 mmHg 87%
    20:00 -5°C° 0.1 mm 4 mps 754 mmHg 87%
    21:00 -5°C° 0.1 mm 4 mps 754 mmHg 88%
    22:00 -5°C° 0 mm 4 mps 753 mmHg 87%
    23:00 -5°C° 0 mm 4 mps 752 mmHg 85%

    Day after tomorrow, 21 November, Wednesday

    Time Temperature Precipitation Wind Pressure Humidity
    00:00 -5°C° 0 mm 4 mps 752 mmHg 84%
    01:00 -5°C° 0 mm 4 mps 751 mmHg 84%
    02:00 -5°C° 0 mm 4 mps 750 mmHg 83%
    03:00 -5°C° 0 mm 4 mps 750 mmHg 83%
    04:00 -5°C° 0.2 mm 4 mps 749 mmHg 85%
    05:00 -5°C° 0.2 mm 5 mps 749 mmHg 87%
    06:00 -5°C° 0.2 mm 5 mps 749 mmHg 89%
    07:00 -5°C° 0.1 mm 5 mps 748 mmHg 87%
    08:00 -5°C° 0.1 mm 5 mps 748 mmHg 86%
    09:00 -4°C° 0.1 mm 5 mps 748 mmHg 84%
    10:00 -4°C° 0.1 mm 6 mps 748 mmHg 80%
    11:00 -4°C° 0.1 mm 6 mps 749 mmHg 76%
    12:00 -4°C° 0.1 mm 7 mps 749 mmHg 73%
    13:00 -5°C° 0 mm 6 mps 749 mmHg 71%
    14:00 -6°C° 0 mm 6 mps 749 mmHg 70%
    15:00 -7°C° 0 mm 5 mps 750 mmHg 68%
    16:00 -7°C° 0 mm 5 mps 750 mmHg 70%
    17:00 -7°C° 0 mm 5 mps 750 mmHg 71%
    18:00 -8°C° 0 mm 5 mps 750 mmHg 73%
    19:00 -8°C° 0 mm 5 mps 750 mmHg 75%
    20:00 -8°C° 0 mm 5 mps 750 mmHg 77%
    21:00 -8°C° 0 mm 5 mps 750 mmHg 79%
    22:00 -8°C° 0 mm 4 mps 750 mmHg 81%
    23:00 -8°C° 0 mm 4 mps 750 mmHg 83%

    22 November, Thursday

    Time Temperature Precipitation Wind Pressure Humidity
    00:00 -8°C° 0 mm 4 mps 749 mmHg 86%
    01:00 -8°C° 0 mm 4 mps 749 mmHg 87%
    02:00 -8°C° 0 mm 4 mps 748 mmHg 88%
    03:00 -8°C° 0 mm 4 mps 748 mmHg 89%
    04:00 -8°C° 0 mm 5 mps 747 mmHg 88%
    05:00 -7°C° 0 mm 5 mps 746 mmHg 86%
    06:00 -7°C° 0 mm 5 mps 745 mmHg 85%
    07:00 -6°C° 0.4 mm 6 mps 744 mmHg 85%
    08:00 -6°C° 0.4 mm 6 mps 744 mmHg 86%
    09:00 -7°C° 0.4 mm 7 mps 743 mmHg 87%
    10:00 -7°C° 0.3 mm 7 mps 742 mmHg 86%
    11:00 -6°C° 0.3 mm 7 mps 741 mmHg 84%
    12:00 -4°C° 0.3 mm 7 mps 740 mmHg 83%
    13:00 -5°C° 0.6 mm 6 mps 740 mmHg 84%
    14:00 -5°C° 0.6 mm 6 mps 740 mmHg 86%
    15:00 -5°C° 0.6 mm 6 mps 740 mmHg 87%
    16:00 -6°C° 0.2 mm 5 mps 741 mmHg 85%
    17:00 -7°C° 0.2 mm 4 mps 741 mmHg 82%
    18:00 -7°C° 0.2 mm 3 mps 742 mmHg 80%
    19:00 -8°C° 0 mm 3 mps 742 mmHg 82%
    20:00 -8°C° 0 mm 3 mps 743 mmHg 85%
    21:00 -8°C° 0 mm 2 mps 743 mmHg 88%
    22:00 -8°C° 0 mm 2 mps 744 mmHg 88%
    23:00 -9°C° 0 mm 2 mps 745 mmHg 89%

    23 November, Friday

    Time Temperature Precipitation Wind Pressure Humidity
    00:00 -9°C° 0 mm 2 mps 745 mmHg 90%
    01:00 -10°C° 0 mm 3 mps 746 mmHg 90%
    02:00 -10°C° 0 mm 3 mps 747 mmHg 90%
    03:00 -12°C° 0 mm 3 mps 748 mmHg 90%
    04:00 -11°C° 0 mm 4 mps 748 mmHg 89%
    05:00 -11°C° 0 mm 4 mps 749 mmHg 88%
    06:00 -11°C° 0 mm 4 mps 750 mmHg 87%
    07:00 -11°C° 0 mm 5 mps 750 mmHg 85%
    08:00 -11°C° 0 mm 5 mps 751 mmHg 83%
    09:00 -11°C° 0 mm 5 mps 752 mmHg 81%
    10:00 -11°C° 0 mm 5 mps 753 mmHg 80%
    11:00 -11°C° 0 mm 5 mps 753 mmHg 78%
    12:00 -11°C° 0 mm 5 mps 754 mmHg 76%
    13:00 -11°C° 0 mm 5 mps 754 mmHg 78%
    14:00 -10°C° 0 mm 4 mps 755 mmHg 80%
    15:00 -11°C° 0 mm 4 mps 755 mmHg 82%
    16:00 -11°C° 0 mm 4 mps 755 mmHg 84%
    17:00 -11°C° 0 mm 4 mps 755 mmHg 85%
    18:00 -11°C° 0 mm 4 mps 755 mmHg 87%
    19:00 -11°C° 0 mm 4 mps 755 mmHg 86%
    20:00 -11°C° 0 mm 4 mps 755 mmHg 86%
    21:00 -11°C° 0 mm 5 mps 755 mmHg 85%
    22:00 -11°C° 0 mm 5 mps 754 mmHg 85%
    23:00 -11°C° 0 mm 5 mps 754 mmHg 85%

    24 November, Saturday

    Time Temperature Precipitation Wind Pressure Humidity
    00:00 -11°C° 0 mm 5 mps 753 mmHg 85%
    01:00 -11°C° 0 mm 5 mps 753 mmHg 85%
    02:00 -11°C° 0 mm 6 mps 752 mmHg 85%
    03:00 -11°C° 0 mm 6 mps 751 mmHg 84%
    04:00 -10°C° 0 mm 6 mps 751 mmHg 85%
    05:00 -10°C° 0 mm 6 mps 750 mmHg 85%
    06:00 -9°C° 0 mm 7 mps 749 mmHg 85%
    07:00 -9°C° 0.1 mm 7 mps 749 mmHg 85%
    08:00 -8°C° 0.1 mm 7 mps 748 mmHg 84%
    09:00 -7°C° 0.1 mm 7 mps 748 mmHg 83%
    10:00 -7°C° 0.1 mm 7 mps 747 mmHg 82%
    11:00 -6°C° 0.1 mm 7 mps 747 mmHg 81%
    12:00 -6°C° 0.1 mm 7 mps 747 mmHg 80%
    13:00 -4°C° 0 mm 7 mps 747 mmHg 80%
    14:00 -4°C° 0 mm 7 mps 747 mmHg 80%
    15:00 -4°C° 0 mm 7 mps 747 mmHg 80%
    16:00 -4°C° 0.1 mm 6 mps 748 mmHg 82%
    17:00 -4°C° 0.1 mm 6 mps 748 mmHg 84%
    18:00 -4°C° 0.1 mm 6 mps 748 mmHg 86%
    19:00 -4°C° 0.1 mm 5 mps 748 mmHg 86%
    20:00 -4°C° 0.1 mm 5 mps 748 mmHg 87%
    21:00 -4°C° 0.1 mm 5 mps 749 mmHg 87%
    22:00 -4°C° 0.1 mm 5 mps 749 mmHg 88%
    23:00 -4°C° 0.1 mm 5 mps 749 mmHg 88%
    Show more